Weather History for Budapest Ferihegy, Hungary

Change the Weather History Date:

Monday, September 12, 2011

  Actual Average Record
Temperature  
Mean Temperature 72 °F -  
Max Temperature 86 °F 64 °F 86 °F (2011)
Min Temperature 57 °F 45 °F 41 °F (2004)
Cooling Degree Days 6    
Growing Degree Days 22 (Base 50)    
Moisture  
Dew Point 56 °F    
Average Humidity 59    
Maximum Humidity 88    
Minimum Humidity 35    
Precipitation  
Precipitation 0.00 in - - ()
Sea Level Pressure  
Sea Level Pressure 29.92 in    
Wind  
Wind Speed 6 mph ()    
Max Wind Speed 17 mph    
Max Gust Speed -    
Visibility 6.2 miles    
Events      
Averages and records for this station are not official NWS values.
T = Trace of Precipitation, MM = Missing Value Source: Averaged Metar Reports

Daily Weather History Graph

Daily Weather History Graph

Search for Another Location

Airport:

Trip Planner

Search our weather history database for the weather conditions in past years. The results will help you decide how hot, cold, wet, or windy it might be!

Date:

Astronomy

Sep. 12, 2011 Rise Set
Actual Time 6:15 AM CEST 7:02 PM CEST
Civil Twilight 5:44 AM CEST 7:33 PM CEST
Nautical Twilight 5:07 AM CEST 8:10 PM CEST
Astronomical Twilight 4:28 AM CEST 8:48 PM CEST
Moon 6:36 PM CEST (9/12) 6:19 AM CEST (9/12)
Length of Visible Light 13h 48m
Length of Day
12h 46m
Full, 100% of the Moon is Illuminated
Sep 12
Full
Sep 20
Last Quarter
Sep 27
New
Oct 4
First Quarter
Oct 12
Full

Hourly Weather History & Observations

Time (CEST) Temp. Heat Index Dew Point Humidity Pressure Visibility Wind Dir Wind Speed Gust Speed Precip Events Conditions
12:00 AM 68.0 °F - 55.4 °F 64% 29.89 in - East 6.9 mph - N/A   Clear
12:30 AM 68.0 °F - 55.4 °F 64% 29.89 in - East 5.8 mph - N/A   Clear
1:00 AM 66.2 °F - 55.4 °F 68% 29.89 in - Variable 3.5 mph - N/A   Clear
1:30 AM 64.4 °F - 55.4 °F 73% 29.89 in - Variable 3.5 mph - N/A   Clear
2:00 AM 64.4 °F - 55.4 °F 73% 29.89 in - Variable 1.2 mph - N/A   Clear
2:30 AM 62.6 °F - 55.4 °F 77% 29.89 in - East 4.6 mph - N/A   Clear
3:00 AM 62.6 °F - 55.4 °F 77% 29.89 in - Variable 3.5 mph - N/A   Clear
3:30 AM 60.8 °F - 55.4 °F 82% 29.89 in - Variable 3.5 mph - N/A   Clear
4:00 AM 62.6 °F - 55.4 °F 77% 29.89 in - Variable 3.5 mph - N/A   Clear
4:30 AM 59.0 °F - 53.6 °F 82% 29.89 in - Variable 3.5 mph - N/A   Clear
5:00 AM 59.0 °F - 53.6 °F 82% 29.89 in - Variable 3.5 mph - N/A   Clear
5:30 AM 59.0 °F - 53.6 °F 82% 29.89 in - Variable 3.5 mph - N/A   Clear
6:00 AM 57.2 °F - 53.6 °F 88% 29.89 in - Variable 3.5 mph - N/A   Clear
6:30 AM 59.0 °F - 55.4 °F 88% 29.89 in - Variable 1.2 mph - N/A   Clear
7:00 AM 60.8 °F - 53.6 °F 77% 29.89 in - Variable 1.2 mph - N/A   Clear
7:30 AM 64.4 °F - 55.4 °F 73% 29.89 in - SE 4.6 mph - N/A   Clear
8:00 AM 66.2 °F - 57.2 °F 73% 29.89 in - Variable 3.5 mph - N/A   Clear
8:30 AM 68.0 °F - 57.2 °F 68% 29.92 in - Variable 3.5 mph - N/A   Clear
9:00 AM 69.8 °F - 57.2 °F 64% 29.92 in - SSW 5.8 mph - N/A   Clear
9:30 AM 71.6 °F - 57.2 °F 60% 29.92 in - WSW 5.8 mph - N/A   Clear
10:00 AM 75.2 °F - 59.0 °F 57% 29.92 in - West 6.9 mph - N/A   Clear
10:30 AM 75.2 °F - 59.0 °F 57% 29.92 in - NW 10.4 mph - N/A   Clear
11:00 AM 77.0 °F - 60.8 °F 57% 29.92 in - WNW 9.2 mph - N/A   Clear
11:30 AM 78.8 °F - 60.8 °F 54% 29.92 in - NW 9.2 mph - N/A   Clear
12:00 PM 77.0 °F - 60.8 °F 57% 29.92 in - WNW 12.7 mph - N/A   Clear
12:30 PM 78.8 °F - 60.8 °F 54% 29.92 in - WNW 10.4 mph - N/A   Clear
1:00 PM 82.4 °F 82.9 °F 60.8 °F 48% 29.92 in - WNW 8.1 mph - N/A   Clear
1:30 PM 84.2 °F 84.4 °F 60.8 °F 45% 29.92 in - West 11.5 mph - N/A   Clear
2:00 PM 82.4 °F 82.5 °F 59.0 °F 45% 29.92 in - WNW 13.8 mph - N/A   Clear
2:30 PM 84.2 °F 84.4 °F 60.8 °F 45% 29.92 in 6.2 mi NW 13.8 mph - N/A   Partly Cloudy
3:00 PM 82.4 °F 82.9 °F 60.8 °F 48% 29.92 in 6.2 mi NW 16.1 mph - N/A   Partly Cloudy
3:30 PM 82.4 °F 82.5 °F 59.0 °F 45% 29.92 in - WNW 15.0 mph - N/A   Clear
4:00 PM 86.0 °F 84.5 °F 55.4 °F 35% 29.92 in - WNW 15.0 mph - N/A   Clear
4:30 PM 86.0 °F 84.5 °F 55.4 °F 35% 29.92 in - WNW 17.3 mph - N/A   Clear
5:00 PM 84.2 °F 82.8 °F 53.6 °F 35% 29.92 in - West 16.1 mph - N/A   Clear
5:30 PM 82.4 °F 81.4 °F 53.6 °F 37% 29.92 in - WNW 17.3 mph - N/A   Clear
6:00 PM 80.6 °F 80.3 °F 53.6 °F 39% 29.92 in - West 17.3 mph - N/A   Clear
6:30 PM 80.6 °F 80.3 °F 53.6 °F 39% 29.92 in - WNW 17.3 mph - N/A   Clear
7:00 PM 78.8 °F - 53.6 °F 42% 29.92 in - WNW 15.0 mph - N/A   Clear
7:30 PM 77.0 °F - 53.6 °F 44% 29.95 in - WNW 15.0 mph - N/A   Clear
8:00 PM 75.2 °F - 53.6 °F 47% 29.95 in - WNW 12.7 mph - N/A   Clear
8:30 PM 71.6 °F - 53.6 °F 53% 29.95 in - WNW 9.2 mph - N/A   Clear
9:00 PM 73.4 °F - 53.6 °F 50% 29.95 in - West 10.4 mph - N/A   Clear
9:30 PM 71.6 °F - 53.6 °F 53% 29.95 in - West 9.2 mph - N/A   Clear
10:00 PM 69.8 °F - 53.6 °F 56% 29.98 in - WNW 6.9 mph - N/A   Clear
10:30 PM 69.8 °F - 53.6 °F 56% 29.98 in - NW 6.9 mph - N/A   Clear
11:00 PM 66.2 °F - 53.6 °F 64% 29.98 in - WNW 4.6 mph - N/A   Clear
11:30 PM 66.2 °F - 53.6 °F 64% 29.98 in - Variable 1.2 mph - N/A   Clear